Location: Columbus AFB Auxilary Field
(32.9346°N, 88.5717°W)
Time: 21:06:39
(UTC-05:00)

ISS - Visible Passes

Search period start: 18 October 2018 00:00
Search period end: 28 October 2018 00:00
Orbit: 403 x 408 km, 51.6° (Epoch: 19 October)

Date Brightness Start Highest point End Pass type
(mag) Time Alt. Az. Time Alt. Az. Time Alt. Az.
24 Oct -1.6 06:20:12 10° S 06:23:02 28° SE 06:25:53 10° ENE visible
25 Oct -0.7 05:29:35 10° SSE 05:31:12 13° SE 05:32:49 10° E visible
26 Oct -3.9 06:12:06 10° SW 06:15:21 89° SE 06:18:39 10° NE visible
27 Oct -2.6 05:23:10 37° SE 05:23:24 37° SE 05:26:27 10° ENE visible
